Olathe, KS

3:19 AM CST on January 21, 2017 (GMT -0600)
Olathe

Weather History for KOJC - May, 2013

Change the Weather History Date:

Monday, May 13, 2013

  Actual Average Record
Temperature  
Mean Temperature 61 °F 64 °F  
Max Temperature 75 °F 74 °F 89 °F (1962)
Min Temperature 47 °F 54 °F 37 °F (1997)
Degree Days  
Heating Degree Days 4 3  
Month to date heating degree days 140 58  
Since 1 July heating degree days 5070 4889  
Cooling Degree Days 0 2  
Month to date cooling degree days 1 18  
Year to date cooling degree days 12 36  
Growing Degree Days 10 (Base 50)    
Moisture  
Dew Point 48 °F    
Average Humidity 63    
Maximum Humidity 82    
Minimum Humidity 43    
Precipitation  
Precipitation 0.00 in 0.17 in 1.20 in (2005)
Month to date precipitation 1.34 2.38  
Year to date precipitation 10.63 11.69  
Sea Level Pressure  
Sea Level Pressure 30.07 in    
Wind  
Wind Speed 8 mph (SSE)    
Max Wind Speed 16 mph    
Max Gust Speed 22 mph    
Visibility 10 miles    
Events      
T = Trace of Precipitation, MM = Missing Value Source: NWS Daily Summary

Daily Weather History Graph

Daily Weather History Graph

Search for Another Location

Airport or City:

Trip Planner

Search our weather history database for the weather conditions in past years. The results will help you decide how hot, cold, wet, or windy it might be!

Date:

Astronomy

May. 13, 2013 Rise Set
Actual Time 6:08 AM CDT 8:23 PM CDT
Civil Twilight 5:38 AM CDT 8:52 PM CDT
Nautical Twilight 5:01 AM CDT 9:29 PM CDT
Astronomical Twilight 4:21 AM CDT 10:10 PM CDT
Moon 8:55 AM CDT (5/13) 11:32 PM CDT (5/13)
Length of Visible Light 15h 14m
Length of Day
14h 14m
Waxing Crescent, 12% of the Moon is Illuminated
May 13
Waxing Crescent
May 17
First Quarter
May 24
Full
May 31
Last Quarter
Jun 8
New

Hourly Weather History & Observations

Time (CDT) Temp. Dew Point Humidity Pressure Visibility Wind Dir Wind Speed Gust Speed Precip Events Conditions
12:53 AM 51.1 °F 42.1 °F 71% 30.16 in 10.0 mi Calm Calm - N/A   Clear
1:53 AM 48.0 °F 43.0 °F 83% 30.14 in 10.0 mi Calm Calm - N/A   Scattered Clouds
2:53 AM 48.0 °F 42.1 °F 80% 30.14 in 10.0 mi SSE 3.5 mph - N/A   Clear
3:53 AM 46.9 °F 41.0 °F 80% 30.13 in 10.0 mi SSE 3.5 mph - N/A   Clear
4:53 AM 48.0 °F 41.0 °F 77% 30.13 in 10.0 mi SE 3.5 mph - N/A   Clear
5:53 AM 48.0 °F 42.1 °F 80% 30.13 in 10.0 mi SE 4.6 mph - N/A   Clear
6:53 AM 48.0 °F 42.1 °F 80% 30.13 in 10.0 mi SE 5.8 mph - N/A   Clear
7:53 AM 53.1 °F 43.0 °F 69% 30.12 in 10.0 mi SSE 8.1 mph - N/A   Clear
8:53 AM 57.9 °F 43.0 °F 58% 30.14 in 10.0 mi SSE 12.7 mph - N/A   Clear
9:53 AM 63.0 °F 46.0 °F 54% 30.11 in 10.0 mi SE 6.9 mph - N/A   Clear
10:53 AM 64.9 °F 46.0 °F 50% 30.10 in 10.0 mi SSE 10.4 mph - N/A   Clear
11:53 AM 68.0 °F 48.0 °F 49% 30.09 in 10.0 mi SSE 10.4 mph - N/A   Clear
12:53 PM 70.0 °F 48.9 °F 47% 30.07 in 10.0 mi South 10.4 mph - N/A   Clear
1:53 PM 72.0 °F 50.0 °F 46% 30.06 in 10.0 mi South 12.7 mph - N/A   Clear
3:53 PM 73.9 °F 53.1 °F 48% 30.03 in 10.0 mi South 13.8 mph 18.4 mph N/A   Clear
4:53 PM 75.0 °F 52.0 °F 44% 30.01 in 10.0 mi South 13.8 mph - N/A   Clear
5:53 PM 75.0 °F 53.1 °F 46% 29.99 in 10.0 mi SSW 11.5 mph - N/A   Clear
7:53 PM 70.0 °F 54.0 °F 57% 29.96 in 10.0 mi South 8.1 mph - N/A   Clear
8:53 PM 64.9 °F 55.0 °F 70% 29.96 in 10.0 mi South 6.9 mph - N/A   Clear
9:53 PM 64.0 °F 55.0 °F 73% 29.96 in 10.0 mi South 6.9 mph - N/A   Clear
10:53 PM 63.0 °F 55.0 °F 75% 29.95 in 10.0 mi South 5.8 mph - N/A   Clear
11:53 PM 63.0 °F 55.0 °F 75% 29.94 in 10.0 mi South 8.1 mph - N/A   Clear